Kuchera_Ratio
7.1 5.6 6.6 6.7 6.2 5.3 5.4 6.2 6.0 0.0 0.0 0.0 0.0 0.0 0.0 0.0 0.0 0.0 0.0 0.0 0.0 0.0 0.0 0.0 0.0 0.0 0.0
9.5 9.0 8.5 7.8 8.6 10.1 5.8 2.3 4.8 0.0 0.0 0.0 0.0 0.0 0.0 0.0 0.0 0.0 0.0 0.0 0.0 0.0 0.0 0.0 0.0 0.0 0.0
11.4 10.5 10.5 9.8 10.7 11.6 11.8 9.0 5.2 0.4 0.0 0.0 0.0 0.0 0.0 0.0 0.0 0.0 0.0 0.0 0.0 0.0 0.0 0.0 0.0 0.0 0.0
12.0 12.3 12.0 11.1 12.0 13.1 12.2 9.8 9.9 4.9 2.2 0.7 0.0 0.0 0.0 0.0 0.0 0.0 0.0 0.0 0.0 0.0 0.0 0.0 0.0 0.0 0.0
12.7 12.6 13.4 12.3 12.6 11.9 13.1 12.1 11.5 9.8 9.9 10.6 10.5 8.4 7.5 2.5 1.5 0.1 0.0 0.0 0.0 0.0 0.0 0.0 0.0 0.0 0.0
12.2 13.7 13.0 12.9 12.7 13.0 13.3 14.3 14.5 7.7 13.1 11.4 8.3 9.9 8.0 8.0 2.5 0.2 0.0 0.0 0.0 0.0 0.0 0.0 0.0 0.0 0.0
11.8 12.4 12.9 12.2 12.5 13.6 13.3 13.7 12.9 10.7 12.0 13.7 10.5 12.3 8.8 6.7 1.7 0.1 0.0 0.0 0.0 0.0 0.0 0.0 0.0 0.0 0.0
10.6 11.0 11.1 9.5 10.1 11.1 11.1 12.9 12.2 11.2 12.4 15.8 11.9 12.8 10.2 9.3 3.5 1.4 0.3 0.0 0.0 0.0 0.0 0.0 0.0 0.0 0.0
0.4 0.5 0.6 0.5 1.9 9.2 14.4 15.5 15.9 14.0 11.9 14.0 14.1 13.7 12.1 11.5 8.9 3.1 0.9 0.0 0.0 0.0 0.0 0.0 0.0 0.0 0.0
12.3 11.1 8.5 11.0 4.9 10.6 14.3 16.9 16.1 16.4 13.6 15.4 14.1 13.9 15.9 12.4 12.5 12.1 9.3 4.5 2.6 1.5 0.6 0.0 0.0 2.5 4.6
13.3 13.2 12.7 12.7 12.7 12.5 12.7 16.1 15.9 15.9 12.2 12.5 15.1 14.9 15.2 16.0 13.5 12.1 11.7 11.1 11.2 9.3 4.7 3.2 2.3 2.8 8.0
14.3 14.5 14.6 15.1 14.8 14.4 13.7 14.0 13.9 14.6 13.3 13.5 15.6 16.6 16.4 16.7 16.6 12.9 12.3 12.1 12.2 12.6 12.4 8.6 4.9 2.9 1.2
15.6 15.7 15.6 15.5 15.3 15.3 14.5 14.2 14.4 14.1 13.0 13.3 14.2 14.4 14.9 16.1 16.3 15.2 14.4 13.1 12.6 13.3 13.2 13.4 13.4 12.7 13.8
15.7 15.0 14.3 15.5 15.7 15.1 16.2 15.6 15.9 15.4 13.0 12.8 13.5 14.3 15.3 14.9 15.0 15.7 14.5 15.7 13.6 13.0 13.0 12.9 12.4 12.1 12.1
16.5 15.9 15.4 15.7 16.0 15.6 16.1 16.3 16.9 16.6 16.2 14.2 13.3 13.3 13.5 14.4 15.7 14.5 14.0 14.1 13.3 13.5 13.7 14.0 12.7 12.1 11.9
17.4 17.4 17.5 17.5 17.2 16.0 15.5 17.0 17.5 16.7 16.5 15.4 15.0 15.0 13.9 12.4 9.1 14.3 13.8 13.8 13.0 12.5 12.1 13.6 12.9 8.8 7.1
18.2 17.9 17.5 17.1 16.1 17.6 17.3 17.1 17.0 16.4 16.1 15.4 15.0 14.9 16.6 17.2 11.4 2.7 12.3 11.5 11.0 11.8 10.1 10.5 12.2 9.8 7.3